SGO200 LGIR-LCGK

Flight info

Callsign SGO200
Flight time N/A
Altitude 9500
Route SIT UM978 TOSKA DCT BONEK
Aircraft C130/H-SDE2E3FGRY/H

Departure

Time N/A
Airport Heraklion International Nikos Kazantzakis Airport (LGIR)

Arrival

Time 2026-05-04 13:15
Airport Lefkoniko Airport / Geçitkale Air Base (LCGK)
Time Latitude Longitude Altitude Speed Heading
2026-05-04 12:42 34.88971 31.71931 9438 ft 359 kts 89°
2026-05-04 12:43 34.88978 31.74965 9437 ft 359 kts 89°
2026-05-04 12:43 34.88986 31.78006 9438 ft 358 kts 89°
2026-05-04 12:43 34.88995 31.81039 9437 ft 358 kts 89°
2026-05-04 12:43 34.89005 31.84072 9435 ft 358 kts 89°
2026-05-04 12:44 34.89015 31.87103 9436 ft 358 kts 89°
2026-05-04 12:44 34.89027 31.90132 9436 ft 358 kts 89°
2026-05-04 12:44 34.89036 31.93167 9433 ft 358 kts 89°
2026-05-04 12:44 34.89047 31.96195 9439 ft 358 kts 89°
2026-05-04 12:45 34.89058 31.99223 9440 ft 357 kts 89°
2026-05-04 12:45 34.89068 32.02249 9438 ft 357 kts 89°
2026-05-04 12:45 34.89079 32.05275 9441 ft 357 kts 89°
2026-05-04 12:45 34.89091 32.08295 9439 ft 357 kts 89°
2026-05-04 12:46 34.89103 32.11318 9445 ft 357 kts 89°
2026-05-04 12:46 34.89115 32.14339 9444 ft 357 kts 89°
2026-05-04 12:46 34.89130 32.17358 9446 ft 356 kts 89°
2026-05-04 12:46 34.89146 32.20374 9449 ft 356 kts 89°
2026-05-04 12:47 34.89161 32.23389 9449 ft 356 kts 89°
2026-05-04 12:47 34.89176 32.26407 9458 ft 356 kts 89°
2026-05-04 12:47 34.89193 32.29427 9455 ft 357 kts 89°
2026-05-04 12:47 34.89210 32.32452 9459 ft 357 kts 89°
2026-05-04 12:48 34.89227 32.35484 9462 ft 359 kts 89°
2026-05-04 12:48 34.89244 32.38521 9462 ft 359 kts 89°
2026-05-04 12:48 34.89261 32.41559 9464 ft 359 kts 89°
2026-05-04 12:48 34.89283 32.44596 9464 ft 359 kts 89°
2026-05-04 12:49 34.89307 32.47635 9464 ft 359 kts 89°
2026-05-04 12:49 34.89324 32.50635 9464 ft 359 kts 89°
2026-05-04 12:49 34.89344 32.53677 9463 ft 360 kts 89°
2026-05-04 12:49 34.89366 32.56725 9465 ft 360 kts 89°
2026-05-04 12:50 34.89389 32.59780 9465 ft 361 kts 89°
2026-05-04 12:50 34.89413 32.62840 9461 ft 362 kts 89°
2026-05-04 12:50 34.89436 32.65906 9458 ft 361 kts 89°
2026-05-04 12:50 34.89458 32.68964 9464 ft 361 kts 89°
2026-05-04 12:51 34.89479 32.72032 9463 ft 362 kts 89°
2026-05-04 12:51 34.89496 32.75104 9459 ft 363 kts 89°
2026-05-04 12:51 34.89517 32.78179 9459 ft 364 kts 89°
2026-05-04 12:51 34.89539 32.81268 9459 ft 365 kts 89°
2026-05-04 12:52 34.89560 32.84366 9464 ft 366 kts 89°
2026-05-04 12:52 34.89586 32.87464 9460 ft 365 kts 89°
2026-05-04 12:52 34.89607 32.90550 9454 ft 363 kts 89°
2026-05-04 12:52 34.89626 32.93624 9452 ft 363 kts 89°
2026-05-04 12:53 34.89650 32.96704 9454 ft 363 kts 89°
2026-05-04 12:53 34.89674 32.99775 9457 ft 363 kts 89°
2026-05-04 12:53 34.89695 33.02846 9453 ft 363 kts 89°
2026-05-04 12:53 34.89717 33.05925 9453 ft 364 kts 89°
2026-05-04 12:54 34.89739 33.09002 9446 ft 362 kts 89°
2026-05-04 12:54 34.89762 33.12067 9444 ft 362 kts 89°
2026-05-04 12:54 34.89787 33.15134 9446 ft 362 kts 89°
2026-05-04 12:54 34.89813 33.18195 9449 ft 361 kts 89°
2026-05-04 12:55 34.89845 33.21258 9440 ft 361 kts 89°
2026-05-04 12:55 34.89877 33.24311 9445 ft 361 kts 89°
2026-05-04 12:55 34.89910 33.27367 9441 ft 361 kts 90°
2026-05-04 12:55 34.89950 33.30425 9440 ft 361 kts 89°
2026-05-04 12:56 34.89999 33.33481 9443 ft 362 kts 89°
2026-05-04 12:56 34.90043 33.36545 9445 ft 362 kts 89°
2026-05-04 12:56 34.90089 33.39533 9395 ft 341 kts 89°
2026-05-04 12:56 34.90126 33.42356 9077 ft 327 kts 89°
2026-05-04 12:57 34.90161 33.45074 8776 ft 315 kts 89°
2026-05-04 12:57 34.90193 33.47689 8464 ft 304 kts 89°
2026-05-04 12:57 34.90225 33.50230 8154 ft 296 kts 89°
2026-05-04 12:57 34.90259 33.52702 7839 ft 288 kts 89°
2026-05-04 12:58 34.90292 33.55114 7523 ft 282 kts 89°
2026-05-04 12:58 34.90321 33.57477 7205 ft 277 kts 89°
2026-05-04 12:58 34.90359 33.59800 6890 ft 272 kts 87°
2026-05-04 12:58 34.90734 33.62029 6560 ft 267 kts 72°
2026-05-04 12:59 34.91277 33.64140 6273 ft 263 kts 70°
2026-05-04 12:59 34.91841 33.66242 5930 ft 260 kts 70°
2026-05-04 12:59 34.92396 33.68322 5587 ft 257 kts 70°
2026-05-04 12:59 34.92940 33.70385 5261 ft 255 kts 70°
2026-05-04 13:00 34.93478 33.72432 4931 ft 253 kts 70°
2026-05-04 13:00 34.94008 33.74468 4592 ft 251 kts 70°
2026-05-04 13:00 34.94524 33.76494 4248 ft 250 kts 70°
2026-05-04 13:00 34.95032 33.78518 3916 ft 249 kts 71°
2026-05-04 13:01 34.95543 33.80524 3587 ft 247 kts 70°
2026-05-04 13:01 34.96046 33.82524 3261 ft 246 kts 70°
2026-05-04 13:01 34.96538 33.84518 3008 ft 245 kts 70°
2026-05-04 13:01 34.97091 33.86467 2674 ft 241 kts 58°
2026-05-04 13:02 34.97971 33.88181 2377 ft 237 kts 52°
2026-05-04 13:02 34.98879 33.89776 2375 ft 220 kts 51°
2026-05-04 13:02 34.99703 33.91276 2352 ft 206 kts 51°
2026-05-04 13:02 35.00481 33.92697 2314 ft 197 kts 51°
2026-05-04 13:03 35.01240 33.94055 2297 ft 190 kts 50°
2026-05-04 13:03 35.02100 33.95204 2272 ft 180 kts 36°
2026-05-04 13:03 35.03027 33.96200 2252 ft 175 kts 33°
2026-05-04 13:03 35.03928 33.97168 2236 ft 172 kts 33°
2026-05-04 13:04 35.04824 33.98111 2227 ft 168 kts 31°
2026-05-04 13:04 35.05740 33.98981 2218 ft 166 kts 28°
2026-05-04 13:04 35.06754 33.99550 2206 ft 158 kts
2026-05-04 13:04 35.07822 33.99895 2205 ft 159 kts
2026-05-04 13:05 35.08881 34.00261 2206 ft 158 kts
2026-05-04 13:05 35.09929 34.00644 2200 ft 157 kts
2026-05-04 13:05 35.10975 34.01044 2195 ft 157 kts
2026-05-04 13:05 35.12017 34.01448 2198 ft 157 kts
2026-05-04 13:06 35.13059 34.01767 2190 ft 152 kts 360°
2026-05-04 13:06 35.14094 34.01997 2190 ft 150 kts 358°
2026-05-04 13:06 35.15123 34.02202 2185 ft 149 kts 357°
2026-05-04 13:06 35.16148 34.02375 2187 ft 148 kts 356°
2026-05-04 13:07 35.17173 34.02537 2186 ft 148 kts 355°
2026-05-04 13:07 35.18174 34.02598 2181 ft 139 kts 339°
2026-05-04 13:07 35.19099 34.02358 2180 ft 132 kts 325°
2026-05-04 13:07 35.19751 34.01685 2173 ft 123 kts 306°
2026-05-04 13:08 35.20300 34.00892 2177 ft 121 kts 299°
2026-05-04 13:08 35.20716 34.00011 2179 ft 118 kts 289°
2026-05-04 13:08 35.21020 33.99082 2179 ft 117 kts 284°
2026-05-04 13:08 35.21247 33.98132 2176 ft 117 kts 281°
2026-05-04 13:09 35.21440 33.97163 2177 ft 118 kts 280°
2026-05-04 13:09 35.21618 33.96180 2179 ft 119 kts 279°
2026-05-04 13:09 35.21789 33.95195 2180 ft 119 kts 279°
2026-05-04 13:09 35.21965 33.94213 2188 ft 117 kts 278°
2026-05-04 13:10 35.22140 33.93243 2194 ft 117 kts 279°
2026-05-04 13:10 35.22311 33.92268 2198 ft 118 kts 279°
2026-05-04 13:10 35.22487 33.91290 2211 ft 118 kts 279°
2026-05-04 13:10 35.22668 33.90305 2211 ft 119 kts 279°
2026-05-04 13:11 35.22849 33.89316 2218 ft 120 kts 279°
2026-05-04 13:11 35.23023 33.88315 2232 ft 120 kts 279°
2026-05-04 13:11 35.23192 33.87311 2243 ft 121 kts 278°
2026-05-04 13:11 35.23364 33.86300 2252 ft 122 kts 279°
2026-05-04 13:12 35.23542 33.85255 2142 ft 130 kts 279°
2026-05-04 13:12 35.23714 33.84132 1975 ft 138 kts 276°
2026-05-04 13:12 35.23792 33.82943 1697 ft 147 kts 271°
2026-05-04 13:12 35.23763 33.81624 1119 ft 163 kts 266°
2026-05-04 13:13 35.23627 33.80298 904 ft 134 kts 263°
2026-05-04 13:13 35.23492 33.79328 813 ft 103 kts 263°
2026-05-04 13:13 35.23429 33.78500 720 ft 96 kts 269°
2026-05-04 13:13 35.23451 33.77675 633 ft 98 kts 272°
2026-05-04 13:14 35.23514 33.76859 603 ft 95 kts 271°
2026-05-04 13:14 35.23551 33.76041 499 ft 97 kts 270°
2026-05-04 13:14 35.23567 33.75230 421 ft 92 kts 269°
2026-05-04 13:14 35.23578 33.74468 292 ft 88 kts 271°
2026-05-04 13:15 35.23590 33.73736 221 ft 83 kts 270°
2026-05-04 13:15 35.23597 33.73050 169 ft 76 kts 264°
2026-05-04 13:15 35.23592 33.72623 169 ft 26 kts 270°
2026-05-04 13:15 35.23611 33.72488 170 ft 5 kts 221°
2026-05-04 13:16 35.23601 33.72517 170 ft 8 kts 84°
2026-05-04 13:16 35.23585 33.72670 169 ft 27 kts 102°
2026-05-04 13:16 35.23532 33.72893 167 ft 26 kts 114°
2026-05-04 13:16 35.23454 33.73067 167 ft 21 kts 119°
2026-05-04 13:17 35.23391 33.73206 166 ft 13 kts 108°
2026-05-04 13:17 35.23361 33.73271 166 ft 6 kts 160°
2026-05-04 13:17 35.23353 33.73273 166 ft 0 kts 175°